FENGYUN 1C DEB

Satellite information

Favourite Embed

Satellite Type and Status

DEBRISIN ORBIT

Key statistics

Satellite FENGYUN 1C DEB at a glance.

Uptime

9556

Days in orbit

Revolutions

≈ 13.7

Per day

Orbit

SSO

Sun Synchronous Orbit

Inclination

98.4

Latest

Satellite identification and parameters

Extended collection of information and parameters for FENGYUN 1C DEB.

Object identification

Identified? True

Debris? True

Object name: FENGYUN 1C DEB

International designator: 1999-025FD

Object number (NORAD): 29859

Object ID (CCSDS): 29859

Country: PEOPLES REPUBLIC OF CHINA (PRC)

Current information (Y/N): Y

RCS size: SMALL

Orbital parameters

Period: 104.87 minutes

Inclination: 98.3554 deg

SMA: 7366.478 km

Apoapsis: 1205.885 km

Periapsis: 770.802 km

RAAN: 43.1534 deg

Eccentricy: 0.0295313

Argument of periapsis: 279.5773 deg

Mean anomaly: 77.213 deg

Mean motion: 13.73133922 rev/day

Mean motion (dot): 0.00001514 rev/day2

B* drag term: 0.0012267 1/REarth

Two-line elements (TLE)

Creation date: July 7, 2025, 10:56 p.m.

Reference frame: TEME

Reference center: EARTH

Epoch: July 7, 2025, 2:32 p.m. UTC

TLE line 0: 0 FENGYUN 1C DEB

TLE line 1: 1 29859U 99025FD 25188.60575729 .00001514 00000-0 12267-2 0 9994

TLE line 2: 2 29859 98.3554 43.1534 0295313 279.5773 77.2130 13.73133922918206

Live tracking on map

Real-time ground track for satellite FENGYUN 1C DEB.

In-orbit conjunctions

A list of the most updated potential collisions computed for object FENGYUN 1C DEB.

Target Orbit TCA Probability of collision Miss distance Type
COSMOS 886 DEB LEO 2025-02-07 09:27:52 0.000106331 125.0 (m) DEBRIS
RADARSAT SSO 2024-12-21 16:51:32 0.0006596486 247.0 (m) PAYLOAD

Associated space launch

Chinese polar orbiting meteorological satellite

FENGYUN 1C DEB was lifted into orbit during the mission ‘Long March 4B | Feng Yun 1C’, on board a Long March 4B space rocket.

The launch took place on May 10, 1999, 1:33 a.m. from Launch Complex 7.

For more information about the launch, click the button.

Launch to space Long March 4B | Feng Yun 1C
Long March 4B | Feng Yun 1C

Agency: N/A

Status: Launch Successful

Launch date: May 10, 1999, 1:33 a.m. UTC

Rocket: Long March 4B

Launch pad: Launch Complex 7

Location: Taiyuan Satellite Launch Center, People's Republic of China

...

Latest news about this satellite

There are no fresh news available about this satellite. Check back as we update our databases every day.


Newsletter sign-up

Weekly statistics, charts and insights to help you stay on top of the space industry.